Location: Hac?musa Deresi
(39.1694°N, 32.2508°E)
Time: 08:52:54
(UTC+00:00)

OAO 3 Rocket - Pass Details

Date: 22 April 2026
Orbit: 613 x 660 km, 35.0° (Epoch: 12 May)

Event Time Altitude Azimuth Distance (km) Brightness Sun altitude
Rises 18:14:34 0° 269° (W) 2,892 7.4 -18.2°
Reaches altitude 10° 18:16:59 10° 262° (W) 1,992 6.3 -18.6°
Maximum altitude 18:21:20 41° 193° (SSW) 919 3.7 -19.3°
Enters shadow 18:22:12 37° 165° (SSE) 985 3.7 -19.4°
